Torna al catalogo

APSTAR 9

AttivoComunicazioniGEO
NORAD 40982·PAYLOAD·🇨🇳 China

Lanciato Oct 16, 2015 da Xichang Satellite Launch Center

Loading…

TLE

AggiornatoSource: Space-Track

Epoca: Sep 14, 2026, 12:46 UTC

1 40982U 15059A   26257.53197539 -.00000274  00000-0  00000-0 0  9991
2 40982   0.0352  33.5885 0002483 144.6878 148.7586  1.00270691 40001

Traccia APSTAR 9 in tempo reale con AllMySat

Download on the App Store